Regional Weather Roundup
Issued by NWS Newport/Morehead, NC

Current Version | Previous Version | Text Only | Print | Product List | Glossary On
Versions: 1 2 3 4 5 6 7 8 9 10 11 12 13 14 15 16 17 18 19 20 21 22 23 24 25 26 27 28 29 30 31 32 33 34 35 36 37 38 39 40 41 42 43 44 45 46 47 48 49 50
388 ASUS42 KMHX 120625 RWRMHX WEATHER ROUNDUP FOR EASTERN NORTH CAROLINA NATIONAL WEATHER SERVICE NEWPORT/MOREHEAD CITY NC 100 AM EST FRI FEB 12 2016 NOTE: "FAIR" INDICATES FEW OR NO CLOUDS BELOW 12,000 FEET WITH NO SIGNIFICANT WEATHER AND/OR OBSTRUCTIONS TO VISIBILITY NCZ015>017-031-032-045>047-102-103-120700- NORTH COAST CITY SKY/WX TMP DP RH WIND PRES REMARKS EDENTON CLEAR 28 12 52 N6 30.33S ELIZABETH CITY CLEAR 28 11 48 N9 30.32R KITTY HAWK CLEAR 30 9 40 CALM 30.30R MANTEO CLEAR 30 11 45 N5 30.32R $$ NCZ045>047-081-094-103-104-120700- CENTRAL COAST CITY SKY/WX TMP DP RH WIND PRES REMARKS FRISCO CLEAR 35 11 36 VRB5 30.31S SWANQUARTER N/A 25 N/A N/A N2 30.30S $$ NCZ095-097-098-100-101-120700- SOUTHERN COAST CITY SKY/WX TMP DP RH WIND PRES REMARKS BEAUFORT CLEAR 30 22 72 NE8 30.29F CEDAR ISLAND N/A 36 N/A N/A NE9 30.36S JACKSONVILLE CLEAR 30 20 66 E3 30.29F PINEY ISLAND CLEAR N/A N/A N/A NE7 30.31S WILMINGTON CLEAR 28 24 85 NE3 30.27F $$ NCZ011>013-027>030-043-044-078>080-089-090>093-098-120700- COASTAL PLAIN CITY SKY/WX TMP DP RH WIND PRES REMARKS AHOSKIE CLEAR 25 8 47 N3 30.34R CLINTON CLEAR 32 20 62 NE3 30.29S ELIZABETHTOWN CLEAR 29 24 81 CALM 30.28R GOLDSBORO CLEAR 30 12 47 NE6 30.29R GREENVILLE CLEAR 27 18 69 CALM 30.33R HAVELOCK CLEAR 27 21 78 N3 30.31S KENANSVILLE CLEAR 26 23 91 CALM 30.31R KINSTON CLEAR 29 16 58 NE5 30.32R NEW BERN CLEAR 24 19 81 CALM 30.32R RICHLANDS CLEAR 27 16 63 N3 30.29S ROCKY MOUNT CLEAR 24 16 71 CALM 30.32R WASHINGTON CLEAR 25 17 70 CALM 30.32S WHITEVILLE CLEAR 30 28 90 CALM 30.25F $$ AMZ130-135-150-152-154-156-158-170-250-252-270-ANZ085-086-088-633-658-670-120700- MARINE OBSERVATIONS STATION/POSITION TIME TEMP WIND PRES WAVE SWELL AIR SEA DIR/SP/G HT/PER HT/PER (UTC) (F) (DEG/KT/KT) (MB) (FT/S) (FT/S) CHESAPEAKE LIGHT 0600 29 360/ 15/ 17 1027.4 64 E VA BEACH 0550 33 49 350/ 16/ 19 1025.8 5/ 6 2/ 9 DUCK 0500 33 330/ 12/ 14 1025.3 2 E DUCK NOT AVBL OREGON INLET 0506 30 40 340/ 5/ 6 1026.2 13E OREGON INLT 0600 44 N/A 3/ 6 HATTERAS CG 0506 37 45 340/ 8/ 11 1025.7 DIAMOND BUOY 0550 40 61 350/ 10/ 12 1026.5 3/ 7 3/ 7 CAPE LOOKOUT NOT AVBL BEAUFORT LAB 0506 35 45 70/ 2/ 2 1025.3 30 SE NEW RVR IN 0508 46 58 1025.2 30 SE NEW RVR IN 0555 59 N/A 3/ 8 27 SE WRIGHTSVLE NOT AVBL 5 SE WRIGHTSVLE 0508 45 50 120/ 4/ 6 1025.4 225 S CAPE HAT 0550 56 68 320/ 14/ 19 N/A 7/ 8 5/ 8 41 SE CHARLESTON 0550 56 69 70/ 10/ 12 1022.5 1/ 5 2/ 5 $$

USA.gov is the U.S. government's official web portal to all federal, state and local government web resources and services.